Location: ??????
(38.1303°N, 24.0039°E)
Time: 19:41:26
(UTC+00:00)

DELTA 2 R/B (1) - Pass Details

Date: 18 October 2021
Orbit: 790 x 802 km, 39.6° (Epoch: 01 December)

Event Time Altitude Azimuth Distance (km) Brightness Sun altitude
Exits shadow 03:06:00 32° 253° (WSW) 1,326 4.2 -18.3°
Maximum altitude 03:07:54 44° 208° (SSW) 1,085 4.0 -18.0°
Drops below altitude 10° 03:13:07 10° 137° (SE) 2,342 6.6 -16.9°
Sets 03:15:41 0° 131° (SE) 3,270 7.5 -16.4°
